247P/LINEAR (2011)

Japanese version
Home page
Updated on September 3, 2011

---------------------------------------------------------------------

* Profile

Designation 247P/2010 V3
Recovery Date November 15, 2010
Magnitude 18.3 mag
Recoverer Lincoln Laboratory Near-Earth Asteroid Research project

* Pictures

* Orbital Elements

Epoch 2010 Dec. 30.0 TT = JDT 2455560.5
T 2011 Jan. 4.14111 TT                                  MPC
q   1.4843894            (2000.0)            P               Q
n   0.12491562     Peri.   47.32761     -0.18166585     -0.96450152
a   3.9633115      Node    54.12582     +0.81881838     -0.25629883
e   0.6254674      Incl.   13.68186     +0.54454933     +0.06362179
P   7.89
From 496 observations 2002 Nov. 5-2011 Jan. 14, mean residual 0".4.

* Finding Charts

* Magnitudes Graph

        m1 = 14.0 + 5 log d + 22.0 log r(t - 30)

---------------------------------------------------------------------

The orbital elements are published on M.P.E.C. 2011-A67.
The charts are made with StellaNavigator Ver.8 (AstroArts).
The magnitudes graphs are made with Comet for Windows.

---------------------------------------------------------------------

Copyright(C) Seiichi Yoshida (comet@aerith.net). All rights reserved.